KE0TRL Weather Reports


Display with metric or nautical units.
time (UTC)temp
F
wind
direction
speed
MPH
gust
MPH
rain 1hr
in
rain 24hr
in
rain mn
in
humidity
%
barometer
mb
20260902083003 77 113 2.0 2.0 0.00 0.00 0.00 70 1011.2
20260902081902 77 158 1.0 1.0 0.00 0.00 0.00 70 1010.8
20260902080802 78 158 1.0 3.0 0.00 0.00 0.00 69 1010.8
20260902075702 79 180 3.0 3.0 0.00 0.00 0.00 65 1011.2
20260902073503 79 90 2.0 3.0 0.00 0.00 0.00 61 1009.8
20260902072502 79 270 1.0 3.0 0.00 0.00 0.00 61 1009.8
20260902071402 79 113 2.0 3.0 0.00 0.00 0.00 61 1009.8
20260902063902 80 90 4.0 4.0 0.00 0.00 0.00 61 1010.2
20260902062902 80 90 4.0 4.0 0.00 0.00 0.00 61 1009.8
20260902061802 81 270 2.0 2.0 0.00 0.00 0.00 61 1009.5
20260902060702 81 113 3.0 4.0 0.00 0.00 0.00 61 1009.8
20260902054502 81 158 5.0 5.0 0.00 0.00 0.00 61 1009.1
20260902053402 81 293 1.0 2.0 0.00 0.00 0.00 61 1009.5
20260902052306 81 180 4.0 4.0 0.00 0.00 0.00 61 1009.8
20260902051102 82 158 2.0 4.0 0.00 0.00 0.00 61 1009.8
20260902050006 82 158 1.0 2.0 0.00 0.00 0.00 61 1010.2
20260902045902 82 158 2.0 2.0 0.00 0.00 0.00 61 1010.2
20260902044702 82 113 6.0 6.0 0.00 0.00 0.00 61 1009.8
20260902043601 83 180 0.0 2.0 0.00 0.00 0.00 61 1009.8
20260902042502 83 158 0.0 2.0 0.00 0.00 0.00 61 1009.8
20260902041302 83 180 2.0 2.0 0.00 0.00 0.00 61 1009.8
20260902040202 83 158 2.0 4.0 0.00 0.00 0.00 61 1009.8
20260902035102 83 180 2.0 2.0 0.00 0.00 0.00 61 1009.8
20260902033902 84 23 2.0 3.0 0.00 0.00 0.00 63 1009.8
20260902032802 84 180 0.0 3.0 0.00 0.00 0.00 63 1009.8
20260902031702 83 158 1.0 2.0 0.00 0.00 0.00 65 1009.5
20260902030603 84 158 0.0 1.0 0.00 0.00 0.00 63 1009.8
20260902025503 85 225 1.0 2.0 0.00 0.00 0.00 61 1009.8
20260902024402 84 158 0.0 0.0 0.00 0.00 0.00 63 1009.5
20260902023302 85 0 1.0 1.0 0.00 0.00 0.00 63 1009.5
20260902022202 85 158 0.0 0.0 0.00 0.00 0.00 63 1009.1
20260902021102 86 158 0.0 0.0 0.00 0.00 0.00 61 1009.1
20260902013402 87 158 0.0 0.0 0.00 0.00 0.00 60 1008.8
20260902011202 88 180 0.0 0.0 0.00 0.00 0.00 58 1008.5
20260902005102 89 113 0.0 0.0 0.00 0.00 0.00 55 1008.8
20260902004102 90 113 2.0 2.0 0.00 0.00 0.00 54 1008.5
20260902002902 91 158 0.0 1.0 0.00 0.00 0.00 53 1008.5
20260902001702 92 113 3.0 3.0 0.00 0.00 0.00 51 1008.5
20260902000602 93 158 3.0 3.0 0.00 0.00 0.00 50 1008.8
20260901235402 94 113 3.0 3.0 0.00 0.00 0.00 50 1008.8
20260901234302 94 180 4.0 4.0 0.00 0.00 0.00 50 1008.8
20260901233202 94 338 4.0 5.0 0.00 0.00 0.00 50 1008.8
20260901231002 95 270 4.0 4.0 0.00 0.00 0.00 49 1008.8
20260901225503 96 158 3.0 3.0 0.00 0.00 0.00 50 1008.8
20260901180202 89 248 1.0 1.0 0.00 0.00 0.00 55 1010.8
20260901174802 89 113 2.0 2.0 0.00 0.00 0.00 55 1011.2
20260901164003 82 113 1.0 1.0 0.00 0.00 0.00 63 1011.5
20260901150902 82 135 1.0 1.0 0.00 0.00 0.00 63 1011.5
20260901142702 75 158 1.0 1.0 0.00 0.00 0.00 78 1011.5
20260901135403 75 158 2.0 2.0 0.00 0.00 0.00 78 1011.9
20260901122002 75 113 0.0 0.0 0.00 0.00 0.00 78 1011.2
20260901120603 75 158 0.0 0.0 0.00 0.00 0.00 78 1010.8
20260901113702 75 270 0.0 0.0 0.00 0.00 0.00 81 1010.8
20260901112502 75 180 0.0 0.0 0.00 0.00 0.00 81 1010.8
20260901110302 75 158 0.0 0.0 0.00 0.00 0.00 81 1011.2
20260901105002 75 180 0.0 0.0 0.00 0.00 0.00 81 1011.2
20260901103802 76 180 0.0 0.0 0.00 0.00 0.00 81 1011.2
20260901102702 76 225 0.0 0.0 0.00 0.00 0.00 81 1011.5
20260901100503 76 225 0.0 0.0 0.00 0.00 0.00 85 1011.5
20260901095402 76 203 0.0 0.0 0.00 0.00 0.00 85 1011.5
20260901094202 76 180 0.0 0.0 0.00 0.00 0.00 85 1011.5
20260901093102 75 203 0.0 0.0 0.00 0.00 0.00 85 1011.9
20260901092003 75 180 0.0 0.0 0.00 0.00 0.00 85 1011.5
20260901091002 75 248 0.0 0.0 0.00 0.00 0.00 85 1011.5
20260901085902 75 203 0.0 0.0 0.00 0.00 0.00 85 1011.5
20260901084702 75 180 0.0 0.0 0.00 0.00 0.00 83 1011.5